Weather History for Slidell, LA

Change the Weather History Date:

Tuesday, January 29, 2013

  Actual Average (KNEW) Record (KNEW)
Temperature  
Mean Temperature 72 °F 54 °F  
Max Temperature 77 °F 63 °F 82 °F (1957)
Min Temperature 66 °F 45 °F 23 °F (1966)
Degree Days  
Heating Degree Days 0 12  
Month to date heating degree days 348  
Since 1 July heating degree days 829  
Cooling Degree Days 6 0  
Month to date cooling degree days 12  
Year to date cooling degree days 12  
Growing Degree Days 22 (Base 50)    
Moisture  
Dew Point 68 °F    
Average Humidity 94    
Maximum Humidity 100    
Minimum Humidity 79    
Precipitation  
Precipitation 0.00 in 0.18 in 1.97 in (1991)
Month to date precipitation 4.81  
Year to date precipitation 4.81  
Snow  
Snow 0.00 in - - ()
Month to date snowfall  
Since 1 July snowfall  
Snow Depth -    
Sea Level Pressure  
Sea Level Pressure 30.00 in    
Wind  
Wind Speed 8 mph (SSE)    
Max Wind Speed 20 mph    
Max Gust Speed 25 mph    
Visibility 8 miles    
Events Rain    
T = Trace of Precipitation, MM = Missing Value Source: NWS Daily Summary

Daily Weather History Graph

Daily Weather History Graph

Search for Another Location

Airport:

Trip Planner

Search our weather history database for the weather conditions in past years. The results will help you decide how hot, cold, wet, or windy it might be!

Date:

Astronomy

Jan. 29, 2013 Rise Set
Actual Time 6:51 AM CST 5:33 PM CST
Civil Twilight 6:26 AM CST 5:58 PM CST
Nautical Twilight 5:57 AM CST 6:27 PM CST
Astronomical Twilight 5:29 AM CST 6:56 PM CST
Moon 8:13 PM CST (1/29) 8:03 AM CST (1/29)
Length of Visible Light 11h 32m
Length of Day
10h 42m
Waning Gibbous, 93% of the Moon is Illuminated
Jan 29
Waning Gibbous
Feb 3
Last Quarter
Feb 10
New
Feb 17
First Quarter
Feb 25
Full

Hourly Weather History & Observations

Time (CST) Temp. Dew Point Humidity Pressure Visibility Wind Dir Wind Speed Gust Speed Precip Events Conditions
12:27 AM 66.2 °F 66.2 °F 100% 30.11 in 3.0 mi SE 6.9 mph - N/A   Overcast
12:53 AM 66.9 °F 66.9 °F 100% 30.11 in 5.0 mi SE 9.2 mph - N/A   Overcast
1:11 AM 66.2 °F 66.2 °F 100% 30.10 in 7.0 mi ESE 4.6 mph - N/A   Overcast
1:53 AM 66.9 °F 66.9 °F 100% 30.10 in 6.0 mi SE 3.5 mph - N/A   Overcast
2:35 AM 68.0 °F 66.2 °F 94% 30.09 in 7.0 mi SE 4.6 mph - N/A   Overcast
2:42 AM 66.2 °F 66.2 °F 100% 30.09 in 7.0 mi SE 3.5 mph - N/A   Overcast
2:53 AM 68.0 °F 66.9 °F 96% 30.09 in 8.0 mi SE 5.8 mph - N/A   Overcast
3:06 AM 68.0 °F 66.2 °F 94% 30.08 in 7.0 mi SE 5.8 mph - N/A   Overcast
3:41 AM 68.0 °F 66.2 °F 94% 30.07 in 9.0 mi SSE 5.8 mph - N/A   Overcast
3:53 AM 68.0 °F 66.9 °F 96% 30.06 in 9.0 mi SE 5.8 mph - N/A   Overcast
4:26 AM 68.0 °F 66.2 °F 94% 30.05 in 10.0 mi SSE 5.8 mph - N/A   Overcast
4:53 AM 68.0 °F 66.0 °F 93% 30.05 in 10.0 mi SE 5.8 mph - N/A   Overcast
6:23 AM 66.2 °F 66.2 °F 100% 30.06 in 10.0 mi SE 5.8 mph - N/A   Mostly Cloudy
6:41 AM 66.2 °F 66.2 °F 100% 30.06 in 10.0 mi SE 5.8 mph - N/A   Scattered Clouds
6:44 AM 66.2 °F 66.2 °F 100% 30.06 in 10.0 mi SE 6.9 mph - N/A   Mostly Cloudy
6:53 AM 66.0 °F 66.0 °F 100% 30.06 in 9.0 mi SE 5.8 mph - N/A   Mostly Cloudy
7:01 AM 66.2 °F 66.2 °F 100% 30.06 in 8.0 mi SSE 5.8 mph - N/A   Scattered Clouds
7:10 AM 66.2 °F 66.2 °F 100% 30.06 in 7.0 mi SE 5.8 mph - N/A   Mostly Cloudy
7:53 AM 66.9 °F 66.9 °F 100% 30.05 in 8.0 mi SE 6.9 mph - N/A   Mostly Cloudy
8:15 AM 69.8 °F 66.2 °F 88% 30.05 in 10.0 mi SSE 10.4 mph - N/A   Overcast
8:53 AM 69.1 °F 68.0 °F 96% 30.06 in 8.0 mi SSE 10.4 mph - N/A   Overcast
9:28 AM 69.8 °F 68.0 °F 94% 30.05 in 10.0 mi South 11.5 mph - N/A   Overcast
9:53 AM 70.0 °F 68.0 °F 93% 30.05 in 10.0 mi SSE 10.4 mph - N/A   Overcast
10:14 AM 69.8 °F 69.8 °F 100% 30.05 in 3.0 mi South 12.7 mph - N/A   Overcast
10:18 AM 69.8 °F 69.8 °F 100% 30.05 in 1.8 mi SSE 10.4 mph - N/A   Overcast
10:32 AM 69.8 °F 69.8 °F 100% 30.05 in 1.8 mi South 8.1 mph - N/A   Overcast
10:39 AM 69.8 °F 69.8 °F 100% 30.04 in 2.0 mi SSE 10.4 mph - N/A   Overcast
10:53 AM 70.0 °F 69.1 °F 97% 30.04 in 3.0 mi SSE 11.5 mph - N/A   Overcast
11:26 AM 71.6 °F 69.8 °F 94% 30.01 in 10.0 mi SSE 12.7 mph 19.6 mph N/A   Overcast
11:41 AM 73.4 °F 69.8 °F 88% 30.01 in 10.0 mi SSE 11.5 mph - N/A   Overcast
11:53 AM 73.9 °F 70.0 °F 87% 30.00 in 10.0 mi SSE 10.4 mph - N/A   Overcast
12:12 PM 73.4 °F 69.8 °F 88% 29.99 in 10.0 mi South 12.7 mph 20.7 mph N/A   Overcast
12:46 PM 75.2 °F 69.8 °F 83% 29.97 in 10.0 mi South 12.7 mph - N/A   Overcast
12:53 PM 75.9 °F 70.0 °F 82% 29.97 in 10.0 mi SSE 15.0 mph - N/A   Overcast
1:53 PM 75.9 °F 70.0 °F 82% 29.94 in 10.0 mi South 13.8 mph 19.6 mph N/A   Mostly Cloudy
2:53 PM 77.0 °F 70.0 °F 79% 29.91 in 10.0 mi South 13.8 mph 20.7 mph N/A   Mostly Cloudy
3:53 PM 75.0 °F 70.0 °F 84% 29.91 in 10.0 mi South 12.7 mph - N/A   Mostly Cloudy
4:01 PM 75.2 °F 69.8 °F 83% 29.90 in 10.0 mi South 12.7 mph - N/A   Mostly Cloudy
4:15 PM 73.4 °F 71.6 °F 94% 29.90 in 7.0 mi South 13.8 mph - 0.00 in Rain Light Rain
4:24 PM 73.4 °F 71.6 °F 94% 29.90 in 10.0 mi SSE 16.1 mph - 0.00 in Rain Light Rain
4:53 PM 73.9 °F 71.1 °F 91% 29.89 in 8.0 mi SSE 11.5 mph - 0.00 in   Overcast
5:24 PM 73.4 °F 69.8 °F 88% 29.89 in 8.0 mi South 10.4 mph - N/A   Overcast
5:53 PM 73.0 °F 70.0 °F 90% 29.88 in 9.0 mi South 8.1 mph - N/A   Overcast
6:14 PM 71.6 °F 69.8 °F 94% 29.88 in 7.0 mi SSE 9.2 mph - N/A   Overcast
6:28 PM 71.6 °F 69.8 °F 94% 29.87 in 5.0 mi SSE 12.7 mph - N/A   Overcast
6:53 PM 72.0 °F 70.0 °F 93% 29.87 in 5.0 mi SSE 11.5 mph - N/A   Overcast
7:53 PM 72.0 °F 70.0 °F 93% 29.86 in 7.0 mi South 17.3 mph 23.0 mph N/A   Overcast
8:53 PM 71.1 °F 70.0 °F 96% 29.87 in 6.0 mi South 11.5 mph 21.9 mph N/A   Overcast
9:53 PM 71.1 °F 70.0 °F 96% 29.83 in 6.0 mi SSE 19.6 mph 25.3 mph N/A   Overcast
10:53 PM 72.0 °F 70.0 °F 93% 29.83 in 8.0 mi South 12.7 mph - N/A   Overcast
11:53 PM 72.0 °F 70.0 °F 93% 29.82 in 9.0 mi South 17.3 mph 23.0 mph N/A   Overcast